Time,TemperatureF,DewpointF,PressureIn,WindDirection,WindDirectionDegrees,WindSpeedMPH,WindSpeedGustMPH,Humidity,HourlyPrecipIn,Conditions,Clouds,dailyrainin,SoftwareType,DateUTC
2013-01-31 00:06:00,54.6,54.0,29.24,SSW,209,3.0,15.0,97,0.08,,,0.01,weatherlink.com 1.10,2013-01-31 05:06:00,
2013-01-31 00:21:00,54.3,54.0,29.22,SW,225,2.0,18.0,97,0.10,,,0.04,weatherlink.com 1.10,2013-01-31 05:21:00,
2013-01-31 00:36:00,54.3,54.0,29.21,SSW,193,7.0,13.0,97,0.10,,,0.06,weatherlink.com 1.10,2013-01-31 05:36:00,
2013-01-31 00:51:00,53.9,53.0,29.19,SSW,205,3.0,16.0,98,0.09,,,0.08,weatherlink.com 1.10,2013-01-31 05:51:00,
2013-01-31 01:06:00,54.4,54.0,29.16,SSW,205,5.0,13.0,98,0.10,,,0.11,weatherlink.com 1.10,2013-01-31 06:06:00,
2013-01-31 01:21:00,54.6,54.0,29.14,SSW,198,6.0,15.0,98,0.09,,,0.13,weatherlink.com 1.10,2013-01-31 06:21:00,
2013-01-31 01:36:00,54.6,54.0,29.12,SW,225,4.0,10.0,97,0.10,,,0.16,weatherlink.com 1.10,2013-01-31 06:36:00,
2013-01-31 01:51:00,53.8,53.0,29.10,SW,219,4.0,6.0,98,0.12,,,0.20,weatherlink.com 1.10,2013-01-31 06:51:00,
2013-01-31 02:07:00,53.7,53.0,29.08,SW,223,2.0,8.0,98,0.12,,,0.23,weatherlink.com 1.10,2013-01-31 07:07:00,
2013-01-31 02:22:00,53.1,52.0,29.07,SW,215,5.0,8.0,97,0.13,,,0.26,weatherlink.com 1.10,2013-01-31 07:22:00,
2013-01-31 02:37:00,52.8,52.0,29.05,SSW,206,3.0,9.0,98,0.11,,,0.27,weatherlink.com 1.10,2013-01-31 07:37:00,
2013-01-31 02:52:00,52.5,52.0,29.02,SW,227,1.0,10.0,98,0.09,,,0.29,weatherlink.com 1.10,2013-01-31 07:52:00,
2013-01-31 03:07:00,52.4,52.0,29.01,SSW,205,4.0,14.0,98,0.07,,,0.30,weatherlink.com 1.10,2013-01-31 08:07:00,
2013-01-31 03:22:00,52.4,52.0,29.00,SSW,211,1.0,11.0,98,0.06,,,0.32,weatherlink.com 1.10,2013-01-31 08:22:00,
2013-01-31 03:37:00,52.1,51.0,28.99,SSW,205,2.0,10.0,97,0.05,,,0.33,weatherlink.com 1.10,2013-01-31 08:37:00,
2013-01-31 03:52:00,52.2,51.0,28.95,South,190,4.0,9.0,97,0.06,,,0.35,weatherlink.com 1.10,2013-01-31 08:52:00,
2013-01-31 04:07:00,52.4,52.0,28.92,SSW,192,4.0,10.0,97,0.06,,,0.36,weatherlink.com 1.10,2013-01-31 09:07:00,
2013-01-31 04:22:00,52.4,52.0,28.91,SW,218,8.0,10.0,97,0.04,,,0.36,weatherlink.com 1.10,2013-01-31 09:22:00,
2013-01-31 04:37:00,52.2,51.0,28.89,South,187,3.0,11.0,97,0.04,,,0.37,weatherlink.com 1.10,2013-01-31 09:37:00,
2013-01-31 04:52:00,52.8,52.0,28.88,SSW,202,3.0,13.0,97,0.04,,,0.39,weatherlink.com 1.10,2013-01-31 09:52:00,
2013-01-31 05:07:00,51.8,51.0,28.87,SW,220,1.0,6.0,97,0.05,,,0.41,weatherlink.com 1.10,2013-01-31 10:07:00,
2013-01-31 05:22:00,51.5,51.0,28.88,SSW,207,6.0,11.0,97,0.10,,,0.46,weatherlink.com 1.10,2013-01-31 10:22:00,
2013-01-31 05:37:00,51.4,51.0,28.87,SSW,211,6.0,10.0,98,0.13,,,0.50,weatherlink.com 1.10,2013-01-31 10:37:00,
2013-01-31 05:52:00,52.1,52.0,28.83,South,190,11.0,14.0,98,0.13,,,0.52,weatherlink.com 1.10,2013-01-31 10:52:00,
2013-01-31 06:07:00,51.9,51.0,28.87,SSW,207,4.0,12.0,97,0.12,,,0.53,weatherlink.com 1.10,2013-01-31 11:07:00,
2013-01-31 06:22:00,51.1,51.0,28.82,South,182,4.0,8.0,98,0.08,,,0.54,weatherlink.com 1.10,2013-01-31 11:22:00,
2013-01-31 06:38:00,52.2,52.0,28.79,SSW,207,9.0,11.0,99,0.04,,,0.54,weatherlink.com 1.10,2013-01-31 11:38:00,
2013-01-31 06:53:00,52.8,52.0,28.83,SW,229,2.0,13.0,97,0.02,,,0.54,weatherlink.com 1.10,2013-01-31 11:53:00,
2013-01-31 07:08:00,51.0,49.0,28.87,WNW,285,3.0,13.0,91,0.01,,,0.54,weatherlink.com 1.10,2013-01-31 12:08:00,
2013-01-31 07:23:00,49.2,46.0,28.88,West,261,2.0,10.0,88,0.01,,,0.55,weatherlink.com 1.10,2013-01-31 12:23:00,
2013-01-31 07:38:00,47.6,43.0,28.88,SW,221,2.0,11.0,83,0.01,,,0.55,weatherlink.com 1.10,2013-01-31 12:38:00,
2013-01-31 07:53:00,46.7,43.0,28.89,WSW,258,0.0,1.0,88,0.01,,,0.55,weatherlink.com 1.10,2013-01-31 12:53:00,
2013-01-31 08:08:00,46.1,42.0,28.92,South,187,0.0,5.0,84,0.01,,,0.55,weatherlink.com 1.10,2013-01-31 13:08:00,
2013-01-31 08:23:00,44.9,38.0,28.94,SW,229,2.0,16.0,78,0.02,,,0.57,weatherlink.com 1.10,2013-01-31 13:23:00,
2013-01-31 08:38:00,42.3,37.0,28.96,West,281,3.0,16.0,81,0.06,,,0.61,weatherlink.com 1.10,2013-01-31 13:38:00,
2013-01-31 08:53:00,41.9,36.0,28.98,SSW,210,5.0,12.0,80,0.06,,,0.61,weatherlink.com 1.10,2013-01-31 13:53:00,
2013-01-31 09:08:00,41.7,35.0,28.99,West,272,5.0,12.0,78,0.06,,,0.61,weatherlink.com 1.10,2013-01-31 14:08:00,
2013-01-31 09:23:00,41.6,35.0,29.00,SSW,206,1.0,17.0,77,0.04,,,0.61,weatherlink.com 1.10,2013-01-31 14:23:00,
2013-01-31 09:38:00,42.0,34.0,29.02,SSW,203,4.0,15.0,73,0.00,,,0.61,weatherlink.com 1.10,2013-01-31 14:38:00,
2013-01-31 09:53:00,42.3,34.0,29.04,WSW,248,14.0,20.0,71,0.00,,,0.61,weatherlink.com 1.10,2013-01-31 14:53:00,
2013-01-31 10:08:00,41.6,32.0,29.05,SSW,207,3.0,21.0,69,0.01,,,0.62,weatherlink.com 1.10,2013-01-31 15:08:00,
2013-01-31 10:23:00,41.3,30.0,29.06,SW,230,7.0,24.0,65,0.01,,,0.62,weatherlink.com 1.10,2013-01-31 15:23:00,
2013-01-31 10:38:00,41.6,29.0,29.07,SW,219,11.0,18.0,62,0.01,,,0.62,weatherlink.com 1.10,2013-01-31 15:38:00,
2013-01-31 10:53:00,41.7,28.0,29.09,SSW,210,13.0,25.0,59,0.01,,,0.62,weatherlink.com 1.10,2013-01-31 15:53:00,
2013-01-31 11:08:00,41.5,28.0,29.10,NNW,330,12.0,21.0,60,0.00,,,0.62,weatherlink.com 1.10,2013-01-31 16:08:00,
2013-01-31 11:23:00,41.8,29.0,29.11,SW,222,8.0,21.0,62,0.00,,,0.62,weatherlink.com 1.10,2013-01-31 16:23:00,
2013-01-31 11:38:00,40.7,27.0,29.11,SSW,211,4.0,17.0,59,0.00,,,0.62,weatherlink.com 1.10,2013-01-31 16:38:00,
2013-01-31 11:54:00,39.3,25.0,29.11,SSW,206,5.0,19.0,58,0.00,,,0.62,weatherlink.com 1.10,2013-01-31 16:54:00,
2013-01-31 12:09:00,38.5,27.0,29.12,WNW,294,12.0,21.0,63,0.00,,,0.62,weatherlink.com 1.10,2013-01-31 17:09:00,
2013-01-31 12:24:00,37.9,24.0,29.14,SW,220,2.0,19.0,58,0.00,,,0.62,weatherlink.com 1.10,2013-01-31 17:24:00,
2013-01-31 12:39:00,37.9,23.0,29.14,SSW,211,4.0,17.0,56,0.00,,,0.62,weatherlink.com 1.10,2013-01-31 17:39:00,
2013-01-31 12:54:00,38.3,22.0,29.17,SW,219,7.0,19.0,52,0.00,,,0.62,weatherlink.com 1.10,2013-01-31 17:54:00,
2013-01-31 13:09:00,37.8,21.0,29.19,SW,226,7.0,18.0,51,0.00,,,0.62,weatherlink.com 1.10,2013-01-31 18:09:00,
2013-01-31 13:24:00,35.9,24.0,29.21,SW,229,2.0,21.0,63,0.00,,,0.62,weatherlink.com 1.10,2013-01-31 18:24:00,
2013-01-31 13:39:00,35.7,21.0,29.21,SW,221,2.0,15.0,56,0.00,,,0.62,weatherlink.com 1.10,2013-01-31 18:39:00,
2013-01-31 13:54:00,36.0,21.0,29.21,SW,224,13.0,21.0,54,0.00,,,0.62,weatherlink.com 1.10,2013-01-31 18:54:00,
2013-01-31 14:09:00,35.9,20.0,29.23,SW,216,13.0,14.0,52,0.00,,,0.62,weatherlink.com 1.10,2013-01-31 19:09:00,
2013-01-31 14:24:00,34.9,20.0,29.23,SW,215,10.0,16.0,56,0.00,,,0.62,weatherlink.com 1.10,2013-01-31 19:24:00,
2013-01-31 14:39:00,35.0,20.0,29.24,WNW,290,3.0,14.0,55,0.00,,,0.62,weatherlink.com 1.10,2013-01-31 19:39:00,
2013-01-31 14:54:00,34.8,21.0,29.25,SSW,206,5.0,20.0,58,0.00,,,0.62,weatherlink.com 1.10,2013-01-31 19:54:00,
2013-01-31 15:09:00,35.4,20.0,29.27,SW,222,7.0,13.0,54,0.00,,,0.62,weatherlink.com 1.10,2013-01-31 20:09:00,
2013-01-31 15:24:00,34.2,21.0,29.28,SSW,213,4.0,23.0,58,0.00,,,0.62,weatherlink.com 1.10,2013-01-31 20:24:00,
2013-01-31 15:39:00,33.7,20.0,29.29,SW,218,3.0,23.0,57,0.00,,,0.62,weatherlink.com 1.10,2013-01-31 20:39:00,
2013-01-31 15:54:00,33.8,18.0,29.30,SW,221,9.0,18.0,52,0.00,,,0.62,weatherlink.com 1.10,2013-01-31 20:54:00,
2013-01-31 16:09:00,33.0,19.0,29.31,SW,216,9.0,17.0,57,0.00,,,0.62,weatherlink.com 1.10,2013-01-31 21:09:00,
2013-01-31 16:24:00,31.8,20.0,29.32,SW,229,5.0,19.0,61,0.00,,,0.62,weatherlink.com 1.10,2013-01-31 21:24:00,
2013-01-31 16:39:00,31.8,19.0,29.33,SW,221,4.0,16.0,60,0.00,,,0.62,weatherlink.com 1.10,2013-01-31 21:39:00,
2013-01-31 16:54:00,31.0,20.0,29.34,NW,307,6.0,22.0,65,0.00,,,0.62,weatherlink.com 1.10,2013-01-31 21:54:00,
2013-01-31 17:10:00,30.7,21.0,29.36,WNW,292,11.0,19.0,67,0.00,,,0.62,weatherlink.com 1.10,2013-01-31 22:10:00,
2013-01-31 17:25:00,30.5,21.0,29.37,WSW,255,2.0,13.0,69,0.00,,,0.62,weatherlink.com 1.10,2013-01-31 22:25:00,
2013-01-31 17:40:00,29.9,22.0,29.38,SSW,210,5.0,10.0,71,0.00,,,0.62,weatherlink.com 1.10,2013-01-31 22:40:00,
2013-01-31 17:55:00,29.4,22.0,29.39,SSW,210,8.0,9.0,75,0.00,,,0.62,weatherlink.com 1.10,2013-01-31 22:55:00,
2013-01-31 18:10:00,28.6,23.0,29.40,SSW,207,4.0,10.0,79,0.00,,,0.62,weatherlink.com 1.10,2013-01-31 23:10:00,
2013-01-31 18:25:00,28.9,21.0,29.41,SW,235,2.0,16.0,73,0.00,,,0.62,weatherlink.com 1.10,2013-01-31 23:25:00,
2013-01-31 18:40:00,29.2,20.0,29.42,SSW,213,10.0,10.0,68,0.00,,,0.62,weatherlink.com 1.10,2013-01-31 23:40:00,
2013-01-31 18:55:00,29.6,18.0,29.43,WNW,301,6.0,9.0,62,0.00,,,0.62,weatherlink.com 1.10,2013-01-31 23:55:00,
2013-01-31 19:10:00,30.4,14.0,29.44,West,262,3.0,10.0,50,0.00,,,0.62,weatherlink.com 1.10,2013-02-01 00:10:00,
2013-01-31 19:25:00,30.4,11.0,29.45,NW,314,5.0,19.0,45,0.00,,,0.62,weatherlink.com 1.10,2013-02-01 00:25:00,
2013-01-31 19:40:00,29.9,12.0,29.46,WNW,295,3.0,15.0,48,0.00,,,0.62,weatherlink.com 1.10,2013-02-01 00:40:00,
2013-01-31 19:55:00,29.6,12.0,29.47,NW,318,4.0,16.0,48,0.00,,,0.62,weatherlink.com 1.10,2013-02-01 00:55:00,
2013-01-31 20:10:00,29.4,12.0,29.48,WNW,288,1.0,5.0,49,0.00,,,0.62,weatherlink.com 1.10,2013-02-01 01:10:00,
2013-01-31 20:25:00,29.0,13.0,29.48,WNW,299,4.0,8.0,51,0.00,,,0.62,weatherlink.com 1.10,2013-02-01 01:25:00,
2013-01-31 20:40:00,28.5,13.0,29.50,NW,321,3.0,5.0,53,0.00,,,0.62,weatherlink.com 1.10,2013-02-01 01:40:00,
2013-01-31 20:55:00,28.1,12.0,29.50,WNW,301,3.0,11.0,51,0.00,,,0.62,weatherlink.com 1.10,2013-02-01 01:55:00,
2013-01-31 21:10:00,27.9,12.0,29.50,West,271,1.0,9.0,51,0.00,,,0.62,weatherlink.com 1.10,2013-02-01 02:10:00,
2013-01-31 21:25:00,27.5,10.0,29.51,NW,306,2.0,9.0,49,0.00,,,0.62,weatherlink.com 1.10,2013-02-01 02:25:00,
2013-01-31 21:40:00,27.0,11.0,29.51,NW,316,1.0,8.0,52,0.00,,,0.62,weatherlink.com 1.10,2013-02-01 02:40:00,
2013-01-31 21:57:00,26.6,11.0,29.52,WNW,297,4.0,8.0,52,0.00,,,0.62,weatherlink.com 1.10,2013-02-01 02:57:00,
2013-01-31 22:11:00,26.7,11.0,29.53,West,269,2.0,8.0,51,0.00,,,0.62,weatherlink.com 1.10,2013-02-01 03:11:00,
2013-01-31 22:26:00,26.6,11.0,29.53,WNW,298,3.0,7.0,52,0.00,,,0.62,weatherlink.com 1.10,2013-02-01 03:26:00,
2013-01-31 22:41:00,26.1,9.0,29.53,WNW,284,1.0,9.0,49,0.00,,,0.62,weatherlink.com 1.10,2013-02-01 03:41:00,
2013-01-31 22:56:00,25.6,10.0,29.53,NNW,338,5.0,9.0,51,0.00,,,0.62,weatherlink.com 1.10,2013-02-01 03:56:00,
2013-01-31 23:11:00,25.7,9.0,29.54,WNW,284,0.0,11.0,50,0.00,,,0.62,weatherlink.com 1.10,2013-02-01 04:11:00,
2013-01-31 23:26:00,25.6,9.0,29.54,NW,324,1.0,6.0,50,0.00,,,0.62,weatherlink.com 1.10,2013-02-01 04:26:00,
2013-01-31 23:41:00,25.6,10.0,29.54,NW,325,0.0,9.0,51,0.00,,,0.62,weatherlink.com 1.10,2013-02-01 04:41:00,
2013-01-31 23:56:00,25.3,9.0,29.55,WNW,298,4.0,5.0,51,0.00,,,0.62,weatherlink.com 1.10,2013-02-01 04:56:00,